FW1241 Weather Reports


Display with metric or nautical units.
time (UTC)temp
F
wind
direction
speed
MPH
gust
MPH
rain 1hr
in
rain 24hr
in
rain mn
in
humidity
%
barometer
mb
20181015151103 54 33 0.0 0.0 0.00 0.00 0.00 79 1019.7
20181015150602 53 92 0.0 1.0 0.00 0.00 0.00 78 1019.6
20181015150103 52 88 0.0 1.0 0.00 0.00 0.00 79 1019.5
20181015145103 51 118 0.0 0.0 0.00 0.00 0.00 82 1019.4
20181015144603 51 118 0.0 0.0 0.00 0.00 0.00 81 1019.4
20181015144102 51 118 0.0 0.0 0.00 0.00 0.00 81 1019.4
20181015142603 51 118 0.0 1.0 0.00 0.00 0.00 80 1019.1
20181015141103 51 41 0.0 0.0 0.00 0.00 0.00 81 1019.0
20181015140102 50 39 0.0 0.0 0.00 0.00 0.00 81 1018.8
20181015135603 50 39 0.0 0.0 0.00 0.00 0.00 81 1018.7
20181015135103 50 39 0.0 0.0 0.00 0.00 0.00 82 1018.6
20181015134103 51 39 0.0 0.0 0.00 0.00 0.00 82 1018.4
20181015133603 51 41 0.0 0.0 0.00 0.00 0.00 81 1018.4
20181015133104 51 41 0.0 0.0 0.00 0.00 0.00 82 1018.4
20181015131603 51 41 0.0 0.0 0.00 0.00 0.00 82 1018.3
20181015130607 51 41 0.0 0.0 0.00 0.00 0.00 82 1018.3
20181015130103 51 41 0.0 0.0 0.00 0.00 0.00 82 1018.3
20181015125603 51 41 0.0 0.0 0.00 0.00 0.00 81 1018.2
20181015125105 52 41 0.0 0.0 0.00 0.00 0.00 82 1018.2
20181015124102 51 29 0.0 1.0 0.00 0.00 0.00 83 1018.1
20181015123602 51 28 0.0 0.0 0.00 0.00 0.00 84 1018.0
20181015122103 51 27 0.0 0.0 0.00 0.00 0.00 83 1017.9
20181015121602 52 27 0.0 0.0 0.00 0.00 0.00 84 1017.9
20181015121103 52 27 0.0 0.0 0.00 0.00 0.00 83 1017.9
20181015120603 52 27 0.0 0.0 0.00 0.00 0.00 83 1017.7
20181015120103 52 27 0.0 0.0 0.00 0.00 0.00 82 1017.6
20181015115602 52 27 0.0 0.0 0.00 0.00 0.00 83 1017.5
20181015115103 52 27 0.0 0.0 0.00 0.00 0.00 83 1017.4
20181015114603 52 27 0.0 0.0 0.00 0.00 0.00 82 1017.3
20181015114105 52 29 0.0 0.0 0.00 0.00 0.00 81 1017.3
20181015113604 52 28 0.0 0.0 0.00 0.00 0.00 81 1017.2
20181015113102 52 29 0.0 0.0 0.00 0.00 0.00 80 1017.1
20181015112102 52 26 0.0 0.0 0.00 0.00 0.00 81 1017.0
20181015111103 52 25 0.0 0.0 0.00 0.00 0.00 82 1016.9
20181015105603 53 26 0.0 0.0 0.00 0.00 0.00 80 1016.7
20181015105103 53 26 0.0 0.0 0.00 0.00 0.00 81 1016.7
20181015103603 52 26 0.0 0.0 0.00 0.00 0.00 82 1016.7
20181015103103 52 26 0.0 0.0 0.00 0.00 0.00 83 1016.7
20181015102602 52 25 0.0 0.0 0.00 0.00 0.00 83 1016.7
20181015102102 52 25 0.0 0.0 0.00 0.00 0.00 83 1016.6
20181015101602 52 24 0.0 0.0 0.00 0.00 0.00 84 1016.7
20181015101104 53 25 0.0 0.0 0.00 0.00 0.00 83 1016.6
20181015100604 53 32 0.0 0.0 0.00 0.00 0.00 82 1016.7
20181015100105 53 50 0.0 0.0 0.00 0.00 0.00 82 1016.6
20181015095606 54 49 0.0 0.0 0.00 0.00 0.00 82 1016.5
20181015095104 54 49 0.0 0.0 0.00 0.00 0.00 82 1016.5
20181015094104 54 49 0.0 0.0 0.00 0.00 0.00 80 1016.3
20181015093603 54 49 0.0 0.0 0.00 0.00 0.00 79 1016.3
20181015092603 55 49 0.0 0.0 0.00 0.00 0.00 78 1016.1
20181015092104 55 49 0.0 0.0 0.00 0.00 0.00 78 1016.1
20181015091603 55 49 0.0 0.0 0.00 0.00 0.00 79 1016.1
20181015091105 55 49 0.0 0.0 0.00 0.00 0.00 79 1016.1
20181015090604 55 49 0.0 0.0 0.00 0.00 0.00 80 1016.1
20181015090104 55 49 0.0 0.0 0.00 0.00 0.00 80 1015.9
20181015085603 55 48 0.0 0.0 0.00 0.00 0.00 79 1015.9
20181015084104 55 49 0.0 0.0 0.00 0.00 0.00 79 1015.8
20181015083104 55 49 0.0 0.0 0.00 0.00 0.00 77 1015.7
20181015082603 55 49 0.0 0.0 0.00 0.00 0.00 77 1015.8
20181015082103 55 49 0.0 0.0 0.00 0.00 0.00 78 1015.7
20181015081604 55 49 0.0 0.0 0.00 0.00 0.00 79 1015.7
20181015081103 55 49 0.0 0.0 0.00 0.00 0.00 79 1015.6
20181015080603 55 49 0.0 0.0 0.00 0.00 0.00 79 1015.6
20181015080104 56 49 0.0 0.0 0.00 0.00 0.00 77 1015.6
20181015075604 56 49 0.0 0.0 0.00 0.00 0.00 76 1015.7
20181015075104 57 49 0.0 0.0 0.00 0.00 0.00 75 1015.5
20181015074603 57 49 0.0 0.0 0.00 0.00 0.00 74 1015.5
20181015073603 57 49 0.0 0.0 0.00 0.00 0.00 72 1015.6
20181015073105 57 49 0.0 0.0 0.00 0.00 0.00 71 1015.6
20181015072103 57 22 0.0 0.0 0.00 0.00 0.00 74 1015.4
20181015071603 57 22 0.0 0.0 0.00 0.00 0.00 74 1015.4
20181015070603 56 22 0.0 0.0 0.00 0.00 0.00 76 1015.3
20181015070103 57 22 0.0 0.0 0.00 0.00 0.00 75 1015.3
20181015065103 57 20 0.0 0.0 0.00 0.00 0.00 76 1015.1
20181015064602 57 20 0.0 0.0 0.00 0.00 0.00 75 1015.0
20181015064103 57 20 0.0 0.0 0.00 0.00 0.00 75 1014.9
20181015063602 57 20 0.0 0.0 0.00 0.00 0.00 76 1014.8
20181015063102 58 20 0.0 0.0 0.00 0.00 0.00 76 1014.8
20181015061602 57 22 0.0 0.0 0.00 0.00 0.00 75 1014.5
20181015055602 57 307 0.0 0.0 0.00 0.00 0.00 75 1014.5
20181015055102 57 307 0.0 0.0 0.00 0.00 0.00 75 1014.4
20181015054603 57 308 0.0 0.0 0.00 0.00 0.00 75 1014.3
20181015054105 58 307 0.0 0.0 0.00 0.00 0.00 75 1014.3
20181015053603 58 307 0.0 0.0 0.00 0.00 0.00 74 1014.2
20181015053103 58 307 0.0 0.0 0.00 0.00 0.00 73 1014.0
20181015052602 59 307 0.0 0.0 0.00 0.00 0.00 72 1014.0
20181015052103 59 307 0.0 0.0 0.00 0.00 0.00 70 1014.0
20181015051603 60 308 0.0 0.0 0.00 0.00 0.00 70 1013.9
20181015051103 60 309 0.0 0.0 0.00 0.00 0.00 71 1013.8
20181015050603 60 308 0.0 0.0 0.00 0.00 0.00 70 1013.8
20181015045102 60 307 0.0 0.0 0.00 0.00 0.00 75 1013.4
20181015044603 60 307 0.0 0.0 0.00 0.00 0.00 75 1013.3
20181015044103 60 307 0.0 0.0 0.00 0.00 0.00 75 1013.3
20181015043603 61 308 0.0 0.0 0.00 0.00 0.00 74 1013.3
20181015043103 61 307 0.0 0.0 0.00 0.00 0.00 73 1013.3
20181015042602 61 308 0.0 0.0 0.00 0.00 0.00 73 1013.2
20181015042102 62 308 0.0 0.0 0.00 0.00 0.00 73 1013.1
20181015041602 62 307 0.0 0.0 0.00 0.00 0.00 72 1013.1
20181015040603 62 307 0.0 0.0 0.00 0.00 0.00 72 1012.9
20181015040102 62 307 0.0 0.0 0.00 0.00 0.00 72 1012.9
20181015035102 63 307 0.0 0.0 0.00 0.00 0.00 72 1012.8
20181015034603 63 307 0.0 0.0 0.00 0.00 0.00 66 1012.7
20181015033603 63 307 0.0 0.0 0.00 0.00 0.00 64 1012.6
20181015033103 63 307 0.0 0.0 0.00 0.00 0.00 65 1012.6
20181015032603 64 307 0.0 0.0 0.00 0.00 0.00 62 1012.6
20181015032103 64 307 0.0 0.0 0.00 0.00 0.00 63 1012.4
20181015031603 64 307 0.0 0.0 0.00 0.00 0.00 62 1012.4
20181015030603 64 307 0.0 0.0 0.00 0.00 0.00 62 1012.4
20181015025103 66 307 0.0 0.0 0.00 0.00 0.00 59 1012.3
20181015024603 66 307 0.0 0.0 0.00 0.00 0.00 57 1012.2
20181015024103 66 307 0.0 0.0 0.00 0.00 0.00 56 1012.1
20181015023602 67 307 0.0 0.0 0.00 0.00 0.00 57 1012.0
20181015023103 67 307 0.0 0.0 0.00 0.00 0.00 54 1011.9
20181015022604 68 307 0.0 0.0 0.00 0.00 0.00 53 1011.8
20181015021603 69 307 0.0 0.0 0.00 0.00 0.00 51 1011.7
20181015021103 70 307 0.0 0.0 0.00 0.00 0.00 49 1011.5
20181015020103 71 307 0.0 0.0 0.00 0.00 0.00 47 1011.5
20181015015603 71 308 0.0 0.0 0.00 0.00 0.00 46 1011.4
20181015015103 72 307 0.0 0.0 0.00 0.00 0.00 46 1011.3
20181015014603 72 307 0.0 0.0 0.00 0.00 0.00 44 1011.3
20181015014102 73 307 0.0 0.0 0.00 0.00 0.00 44 1011.3
20181015013602 74 308 0.0 0.0 0.00 0.00 0.00 42 1011.2
20181015013103 74 307 0.0 0.0 0.00 0.00 0.00 41 1011.2
20181015011603 76 307 0.0 0.0 0.00 0.00 0.00 39 1011.0
20181015011102 76 310 0.0 1.0 0.00 0.00 0.00 38 1010.9
20181015010603 77 311 0.0 2.0 0.00 0.00 0.00 37 1010.8
20181015005603 77 269 0.0 1.0 0.00 0.00 0.00 36 1010.8
20181015004603 78 324 1.0 3.0 0.00 0.00 0.00 35 1010.8
20181015004103 78 313 1.0 2.0 0.00 0.00 0.00 35 1010.7
20181015003602 79 307 0.0 3.0 0.00 0.00 0.00 34 1010.7
20181015003103 79 316 1.0 3.0 0.00 0.00 0.00 34 1010.7
20181015001603 80 313 0.0 3.0 0.00 0.00 0.00 33 1010.7
20181015001103 80 308 1.0 3.0 0.00 0.00 0.00 32 1010.7
20181015000603 80 301 1.0 3.0 0.00 0.00 0.00 32 1010.7
20181015000103 80 305 1.0 3.0 0.00 0.00 0.00 32 1010.7
20181014235603 80 310 1.0 2.0 0.00 0.00 0.00 31 1010.7
20181014233104 81 309 2.0 5.0 0.00 0.00 0.00 31 1010.9
20181014191602 79 107 0.0 1.0 0.00 0.00 0.00 42 1012.7
20181014191102 79 143 0.0 1.0 0.00 0.00 0.00 41 1012.6
20181014190602 79 135 0.0 1.0 0.00 0.00 0.00 41 1012.7
20181014190102 79 138 0.0 2.0 0.00 0.00 0.00 45 1012.8
20181014185102 78 152 1.0 2.0 0.00 0.00 0.00 44 1012.8
20181014184602 77 334 0.0 1.0 0.00 0.00 0.00 44 1012.7
20181014184102 77 160 1.0 3.0 0.00 0.00 0.00 45 1012.8
20181014183601 77 201 0.0 3.0 0.00 0.00 0.00 45 1012.8
20181014183101 76 141 1.0 2.0 0.00 0.00 0.00 47 1012.9
20181014182602 76 214 0.0 1.0 0.00 0.00 0.00 47 1012.9
20181014181602 75 153 0.0 3.0 0.00 0.00 0.00 49 1013.0
20181014180602 74 156 0.0 2.0 0.00 0.00 0.00 47 1013.0
20181014180102 74 354 0.0 1.0 0.00 0.00 0.00 47 1013.0
20181014175602 74 143 0.0 2.0 0.00 0.00 0.00 49 1013.0
20181014174602 73 251 1.0 3.0 0.00 0.00 0.00 49 1013.1
20181014174101 72 220 0.0 1.0 0.00 0.00 0.00 50 1013.1
20181014173601 72 167 1.0 3.0 0.00 0.00 0.00 52 1013.0
20181014173102 72 312 0.0 1.0 0.00 0.00 0.00 52 1013.1
20181014172602 71 195 0.0 1.0 0.00 0.00 0.00 55 1013.1
20181014172102 71 256 0.0 1.0 0.00 0.00 0.00 52 1013.1
20181014171602 71 152 1.0 2.0 0.00 0.00 0.00 54 1013.0
20181014170602 71 106 0.0 3.0 0.00 0.00 0.00 53 1013.1
20181014170102 70 125 0.0 1.0 0.00 0.00 0.00 55 1013.1
20181014165602 69 148 0.0 3.0 0.00 0.00 0.00 57 1013.1
20181014165101 69 130 0.0 3.0 0.00 0.00 0.00 55 1013.0
20181014164602 69 97 1.0 5.0 0.00 0.00 0.00 57 1013.0
20181014163602 68 161 1.0 3.0 0.00 0.00 0.00 57 1012.9
20181014162602 67 82 0.0 3.0 0.00 0.00 0.00 59 1012.8
20181014162101 67 132 0.0 2.0 0.00 0.00 0.00 61 1012.8
20181014161601 66 150 1.0 3.0 0.00 0.00 0.00 60 1012.7
20181014160602 66 102 0.0 3.0 0.00 0.00 0.00 62 1012.6
20181014160102 65 96 0.0 1.0 0.00 0.00 0.00 64 1012.5
20181014155602 64 120 0.0 2.0 0.00 0.00 0.00 65 1012.5
20181014155102 63 150 0.0 2.0 0.00 0.00 0.00 67 1012.5
20181014154601 63 125 0.0 2.0 0.00 0.00 0.00 68 1012.4
20181014154102 63 146 0.0 1.0 0.00 0.00 0.00 71 1012.4
20181014153602 62 165 0.0 0.0 0.00 0.00 0.00 73 1012.4
20181014153103 61 150 0.0 0.0 0.00 0.00 0.00 76 1012.3
20181014152602 60 150 0.0 0.0 0.00 0.00 0.00 78 1012.3
20181014152102 58 150 0.0 0.0 0.00 0.00 0.00 80 1012.3
20181014151602 56 150 0.0 0.0 0.00 0.00 0.00 84 1012.2